Location: Cabadeur
(42.9563°N, 0.2289°E)
Time: 01:32:30
(UTC+00:00)

Daily predictions for brighter satellites

Satellite Brightness Start Highest point End
(mag) Time Altitude Azimuth Time Altitude Azimuth Time Altitude Azimuth
Cosmos 1464 Rocket 4.3 00:08:47 56° E 00:08:47 56° E 00:14:35 10° NNE
Lacrosse 4 Rocket 3.3 00:13:02 28° NNE 00:13:02 28° NNE 00:15:04 10° NNE
Cosmos 2233 Rocket 4.3 00:10:46 55° W 00:10:49 55° WNW 00:17:03 10° N
Cosmos 2333 4.4 00:05:01 10° NNW 00:10:14 69° NNE 00:10:14 69° NNE
Cosmos 2219 Rocket 2.7 00:05:45 10° NNW 00:11:13 54° NE 00:11:13 54° NE
Cosmos 968 Rocket 4.1 00:19:13 52° NNE 00:19:13 52° NNE 00:23:06 10° NNE
Cosmos 2322 Rocket 3.8 00:14:36 10° NW 00:17:43 23° WNW 00:17:43 23° WNW
COSMOS 2428 2.9 00:23:46 10° NNW 00:29:11 66° NE 00:29:11 66° NE
SL-16 R/B 4.1 00:28:37 20° E 00:31:22 28° ENE 00:36:33 10° N
CENTAUR R/B 4.4 00:27:24 12° W 00:32:15 27° NNW 00:38:20 10° NNE
Nadezhda 4 Rocket 4.2 00:28:46 10° N 00:35:01 60° E 00:35:18 59° E
Cosmos 2360 Rocket 3.5 00:29:56 10° NW 00:33:24 30° WNW 00:33:24 30° WNW
Cosmos 2034 Rocket 4.1 00:35:41 65° E 00:35:41 65° E 00:41:50 10° NNE
Cosmos 1513 Rocket 4.4 00:37:32 85° WNW 00:37:32 85° WNW 00:43:55 10° N
CZ-2D R/B 3.8 00:33:53 10° NE 00:38:05 23° E 00:38:05 23° E
Cosmos 1072 Rocket 4.4 00:39:08 77° NW 00:39:08 77° NW 00:45:01 10° N
Meteor 2-9 Rocket 4.4 00:41:29 68° NNW 00:41:29 68° NNW 00:46:28 10° N
GEOS 3 Rocket 4.1 00:38:22 10° NE 00:42:46 55° ENE 00:42:46 55° ENE
Cosmos 2297 Rocket 3.5 00:45:36 29° E 00:45:36 29° E 00:49:48 10° NE
Cosmos 2219 4.3 00:45:50 33° E 00:45:50 33° E 00:50:09 10° NE
Cosmos 1975 Rocket 4.4 00:42:52 10° NNW 00:45:36 36° NNW 00:45:36 36° NNW
Cosmos 2333 Rocket 2.6 00:43:30 10° NNW 00:48:11 57° NW 00:48:11 57° NW
Helios 1B rocket 4.0 00:46:28 10° N 00:48:49 33° N 00:48:49 33° N
Cosmos 44 Rocket 3.9 00:50:47 10° NNW 00:55:08 56° NNE 00:55:08 56° NNE
Cosmos 1503 Rocket 4.5 00:56:39 56° NW 00:56:39 56° NW 01:01:25 10° NNE
Cosmos 2237 Rocket 3.0 00:53:06 10° NNW 00:58:31 45° ENE 00:59:51 38° E
Cosmos 2151 Rocket 4.5 01:12:29 46° NNE 01:12:29 46° NNE 01:15:42 10° NNE
Meteor 1-12 Rocket 4.2 01:11:27 87° ESE 01:11:28 87° ESE 01:17:31 10° N
Timation 2 Rocket 3.8 01:14:34 85° SSW 01:14:45 89° ESE 01:20:52 10° NNE
In-Cosmos 22 4.1 01:13:36 10° N 01:19:14 78° E 01:19:15 78° E
SJ 16-02 3.3 01:25:10 21° E 01:25:10 21° E 01:28:17 10° NE
Meteor 2-13 Rocket 4.3 01:27:23 10° N 01:33:31 89° W 01:34:11 73° S
Cosmos 2227 Rocket 2.3 01:33:34 62° ESE 01:33:48 62° ESE 01:39:24 10° NNE
Cosmos 1538 Rocket 4.0 01:30:31 10° NNW 01:35:43 76° ENE 01:35:51 75° E
Cosmos 2195 Rocket 4.4 01:29:50 10° N 01:36:10 86° W 01:37:03 69° S
MOZ.5/SAFIR/RUBIN 5/SL-8 4.1 01:37:00 61° NW 01:37:00 61° NW 01:41:00 10° NNW
Cosmos 1025 Rocket 4.3 01:33:31 10° NNW 01:36:08 34° NW 01:36:08 34° NW
Resurs 1-4 Rocket 2.0 01:33:56 10° NNE 01:39:14 77° ESE 01:39:24 76° SE
Cosmos 1674 4.0 01:37:20 10° N 01:39:47 37° NNE 01:39:47 37° NNE
SL-19 R/B 4.5 01:37:00 10° N 01:42:52 59° WNW 01:43:22 57° W
NOSS 0 Rocket 4.0 01:38:45 10° NNW 01:44:39 57° WSW 01:44:39 57° WSW
ATLAS 3B R/B 4.4 01:40:56 12° W 01:45:26 23° NNW 01:50:39 10° NNE
Cosmos 2279 Rocket 4.2 01:44:46 49° SSE 01:46:16 64° E 01:52:23 10° NNE
Lacrosse 4 Rocket 4.0 01:49:19 12° NW 01:50:07 12° NW 01:51:51 10° NNW
USA 215 3.3 01:43:41 10° NE 01:50:11 64° SE 01:51:29 54° S
Cosmos 2026 Rocket 3.8 01:44:09 10° N 01:50:14 79° W 01:51:08 65° SSW
Cosmos 1634 Rocket 3.9 01:50:26 63° SW 01:51:23 74° W 01:57:39 10° N
Cosmos 1627 Rocket 4.3 01:46:41 10° NNW 01:52:49 72° W 01:53:40 63° SW
Cosmos 2082 4.1 01:53:29 47° SE 01:54:24 52° ESE 01:59:50 10° NE
Cosmos 2219 Rocket 3.9 01:50:31 10° NW 01:52:54 19° WNW 01:52:54 19° WNW
Cosmos 2344 4.4 01:46:17 10° NW 01:56:09 86° WSW 02:10:02 10° SSE
IRAS Rocket 4.1 01:57:00 65° WSW 01:57:12 65° WSW 02:02:46 10° NNW
SL-4 R/B 3.5 01:58:02 22° NNW 01:59:26 29° NNE 02:02:27 10° E
Cosmos 2142 Rocket 4.4 02:00:56 56° SSW 02:02:25 83° W 02:08:51 10° N
Meteor 1-24 Rocket 4.0 02:01:06 10° N 02:06:31 59° ENE 02:08:55 32° SE
SL-16 R/B 2.7 02:01:36 10° NNW 02:07:14 58° ENE 02:12:33 11° SE
CBERS-1 4.2 02:02:58 10° NNE 02:08:03 62° ESE 02:09:09 50° SSE
Meteor 2-5 Rocket 3.6 02:04:36 10° N 02:10:17 85° E 02:11:59 47° SSE
Cosmos 1898 Rocket 4.3 02:11:42 34° SE 02:13:14 43° ESE 02:18:10 10° NNE
SL-16 R/B 2.7 02:13:42 48° SW 02:14:38 52° W 02:20:45 10° NNW
ARIANE 5 R/B 3.8 02:10:42 10° NNE 02:15:27 34° E 02:18:02 22° SE
NPP 3.7 02:12:07 10° N 02:17:26 61° WNW 02:18:22 52° WSW
IDEFIX/ARIANE 42P 4.4 02:14:03 10° NE 02:18:14 24° E 02:21:55 12° SE
CZ-2D R/B 2.5 02:13:09 10° N 02:18:27 51° WNW 02:19:24 46° WSW
NOSS 3-1 (C) 3.9 02:17:24 35° SSE 02:18:58 43° ESE 02:24:38 10° NE
Cosmos 1680 Rocket 3.9 02:13:49 10° NNW 02:19:02 61° ENE 02:22:58 17° SE
USA 267 4.1 02:15:26 10° ESE 02:21:40 49° NNE 02:27:55 10° NW
AQUA 3.9 02:19:13 10° N 02:23:55 60° WNW 02:24:26 56° WSW
Cosmos 990 Rocket 4.3 02:23:20 42° SSE 02:24:52 60° ESE 02:29:58 10° NNE
Cosmos 1607 4.1 02:19:19 10° NNW 02:25:48 77° NE 02:32:16 10° SE
Cosmos 1766 3.8 02:26:32 47° NW 02:26:32 47° NW 02:29:52 10° N
ADEOS II 2.1 02:21:28 10° NNE 02:26:46 81° ESE 02:28:23 46° S
Cosmos 2263 Rocket 4.0 02:23:53 13° SSE 02:27:24 23° ESE 02:31:42 10° NE
Meteor 1-22 Rocket 3.9 02:27:12 51° SSW 02:28:36 86° WNW 02:33:56 10° N
Cosmos 2297 Rocket 2.8 02:27:24 36° W 02:28:50 42° WNW 02:34:12 10° NNE
Cosmos 2219 4.1 02:27:45 31° W 02:29:12 36° WNW 02:34:24 10° N
IRS-1D 3.4 02:25:31 10° NNE 02:30:35 80° WNW 02:31:54 51° SSW
Okean 1-7 Rocket 3.9 02:28:45 10° N 02:33:08 65° E 02:35:04 32° SSE
IRS-1C 4.2 02:31:02 10° NNE 02:36:22 71° ESE 02:38:42 34° S
Okean 1 Rocket 4.1 02:38:14 29° WNW 02:38:14 29° WNW 02:41:58 10° NNW
Meteor 1-28 Rocket 3.9 02:36:22 27° SE 02:38:09 51° ENE 02:41:51 10° N
Cosmos 1626 2.2 02:35:31 10° NNW 02:38:56 62° WNW 02:38:56 62° WNW
Cosmos 2266 Rocket 4.0 02:33:48 10° N 02:40:13 82° E 02:45:02 18° S
Cosmos 1655 Rocket 3.9 02:34:48 10° N 02:41:04 76° W 02:44:27 29° S
Cosmos 2237 Rocket 3.3 02:37:39 10° NW 02:41:37 27° W 02:41:37 27° W
Cosmos 1470 2.9 02:41:43 50° SSE 02:42:36 72° E 02:46:34 10° NNE
CZ-4B R/B 3.7 02:39:12 10° N 02:43:48 50° WNW 02:44:51 42° WSW
SL-08 R/B 3.4 02:43:56 20° SSE 02:47:25 81° ENE 02:52:24 10° NNW
Cosmos 923 Rocket 4.1 02:43:51 10° NNW 02:49:05 56° WSW 02:51:06 35° SSW
USA 229 DEB 3.8 02:48:34 30° SSW 02:51:56 68° ESE 02:58:41 10° NE
USA 229 3.8 02:48:39 30° SSW 02:52:01 67° ESE 02:58:45 10° NE
Cosmos 2098 Rocket 3.5 02:50:18 10° N 02:55:10 78° W 02:59:34 19° S
Cosmos 158 Rocket 4.0 02:51:35 10° NNW 02:56:54 63° WSW 03:00:32 20° S
OPS 8737 4.4 02:57:00 58° SW 02:57:36 79° NW 03:00:44 10° NNE
NOSS 2-3 (C) 4.3 03:01:07 27° S 03:03:02 47° ESE 03:07:36 10° NE
NOSS 3-1 (A) 3.7 03:00:07 25° S 03:03:10 55° ESE 03:09:10 10° NE
SJ 16-02 2.2 03:02:10 31° W 03:03:16 36° WNW 03:07:21 10° N
ERBS 2.1 03:00:15 10° NW 03:03:33 63° SW 03:06:45 10° SE
SL-14 R/B 3.9 03:00:05 10° NNW 03:03:42 36° W 03:03:47 36° W
SL-23 DEB 4.3 03:03:07 10° WNW 03:09:25 58° SW 03:13:11 10° SE
Cosmos 858 Rocket 4.5 03:07:27 28° SSW 03:10:18 82° WNW 03:15:37 10° NNE
Cosmos 1455 Rocket 3.6 03:11:32 32° WSW 03:12:57 43° WNW 03:17:11 10° N
Cosmos 1943 4.3 03:08:33 10° NNW 03:13:58 46° ENE 03:19:20 10° SE
Cosmos 1809 Rocket 4.4 03:08:09 10° N 03:14:17 87° W 03:20:24 10° S
MSX 4.4 03:08:50 10° NNE 03:14:30 55° E 03:20:08 10° S
Cosmos 1758 3.4 03:13:25 34° SW 03:14:54 57° W 03:18:54 10° N
IRS-P3 4.5 03:10:00 10° N 03:15:09 50° WNW 03:17:56 26° SW
Cosmos 1626 Rocket 3.5 03:11:08 10° N 03:15:29 83° E 03:19:47 10° S
Cosmos 2227 Rocket 3.8 03:15:24 16° W 03:18:19 23° NW 03:22:44 10° N
Resurs 1-4 Rocket 4.0 03:15:22 10° NNW 03:18:23 16° WNW 03:20:28 13° W
Spot 4 Rocket 4.0 03:13:54 10° NNE 03:19:06 90° W 03:23:00 18° SSW
Meteor 1-21 Rocket 4.4 03:13:42 10° N 03:19:17 74° E 03:24:48 10° SSE
SeaSat 1 3.1 03:18:34 10° NE 03:23:23 50° ESE 03:27:42 13° S
Landsat 5 4.0 03:19:56 10° SSE 03:23:43 56° ENE 03:27:39 10° N
Cosmos 1461 3.8 03:23:26 24° WSW 03:25:34 41° NW 03:29:53 10° NNE
CZ-2C R/B 2.9 03:23:16 10° NNE 03:27:10 73° ESE 03:30:09 16° S
CZ-2D R/B 3.4 03:24:45 10° N 03:28:46 64° WNW 03:31:10 22° SSW
Cosmos 2227 4.3 03:24:44 18° SSW 03:29:09 85° ESE 03:34:57 10° NNE
FALCON 9 DEB 3.7 03:26:55 10° NW 03:30:22 59° NNE 03:33:46 10° ESE
ATLAS CENTAUR R/B 3.8 03:28:20 10° SSE 03:31:03 17° ESE 03:33:40 10° ENE
Cosmos 1340 Rocket 3.6 03:29:56 25° WSW 03:31:32 35° WNW 03:35:13 10° N
ATLAS 3B CENTAUR R/B 4.0 03:27:04 18° WSW 03:32:12 26° SSW 03:37:13 10° SE
USA 215 4.0 03:26:51 10° NE 03:33:02 46° NNW 03:38:49 12° W
ERS-2 2.5 03:31:23 10° SSE 03:34:59 67° ENE 03:38:37 10° N
Cosmos 724 4.4 03:30:43 10° NNW 03:36:47 90° ENE 03:42:54 10° SSE
Meteor 2-21 4.4 03:31:19 10° NNW 03:37:19 67° W 03:43:19 10° S
Cosmos 1953 2.3 03:35:03 19° SSW 03:37:50 63° W 03:41:51 10° N
SL-4 R/B 1.5 03:35:47 10° WNW 03:39:08 54° SW 03:42:28 10° SE
Cosmos 1726 2.4 03:38:38 21° SW 03:40:47 47° WNW 03:44:21 10° N
Cosmos 1908 3.6 03:39:08 10° S 03:43:00 66° E 03:46:53 10° NNE
Meteor 1-16 Rocket 4.1 03:38:41 10° S 03:44:02 88° E 03:49:33 10° N
Cosmos 2285 Rocket 4.3 03:39:27 10° S 03:45:42 68° ESE 03:51:57 10° NNE
H-2A R/B 1.9 03:45:16 10° S 03:49:22 64° WSW 03:53:27 10° NNW
Cosmos 2150 Rocket 4.2 03:45:26 10° S 03:50:33 72° ESE 03:55:45 10° NNE
Cosmos 1937 Rocket 4.3 03:47:07 16° WSW 03:50:49 37° WNW 03:55:46 10° N
SL-16 R/B 3.4 03:46:43 10° NW 03:50:51 21° W 03:54:15 13° SW
ARIANE 5 R/B 3.5 03:49:54 10° N 03:54:28 32° WNW 03:58:22 13° WSW
Cosmos 1825 Rocket 4.0 03:51:42 10° N 03:56:02 66° E 04:00:19 10° SSE
IDEFIX/ARIANE 42P 3.1 03:53:04 10° N 03:57:59 44° WNW 04:02:43 11° SW
CZ-4C R/B 3.2 03:55:43 10° S 03:58:45 42° W 04:01:54 10° NNW
Cosmos 1328 3.8 03:56:26 10° N 04:00:27 85° E 04:04:25 10° S
NOSS 2-3 (E) 4.0 03:57:58 14° WSW 04:01:29 52° NW 04:06:22 10° NNE
CZ-4B R/B 2.7 03:58:42 10° SE 04:01:51 42° ENE 04:04:57 10° N
USA 267 3.3 03:58:10 10° SSE 04:04:36 59° SW 04:11:03 10° NW
ADEOS II 4.0 04:02:55 10° NNW 04:05:45 15° WNW 04:08:36 10° W
NOSS 3-1 (C) 4.3 04:04:48 10° WSW 04:09:51 36° NW 04:15:46 10° NNE
Cosmos 2263 Rocket 2.5 04:05:37 10° SW 04:10:56 51° WNW 04:16:22 10° NNE
Cosmos 1703 3.3 04:07:18 10° NNW 04:11:13 59° W 04:15:06 10° S
Cosmos 1553 Rocket 4.0 04:07:21 10° SSW 04:13:22 68° W 04:19:27 10° N
Cosmos 372 Rocket 4.4 04:08:22 10° SW 04:13:23 48° WNW 04:18:28 10° N
SAR-Lupe-4 3.8 04:13:28 10° SSE 04:17:02 77° ENE 04:20:37 10° N
OAO 3 Rocket 4.4 04:15:50 10° SW 04:20:06 29° S 04:24:21 10° ESE
Cosmos 482 Debris 4.3 04:16:01 10° WNW 04:21:26 76° SW 04:24:38 10° SE
Cosmos 1606 Rocket 3.6 04:17:33 10° SSW 04:22:00 69° W 04:26:29 10° N
Aureole 3 4.2 04:17:35 10° SSW 04:22:30 77° W 04:28:52 10° N
Cosmos 1300 3.2 04:20:32 10° S 04:24:18 64° E 04:28:06 10° NNE
SL-08 ROCKET BODY 4.4 04:18:30 10° N 04:24:35 74° W 04:30:32 10° S
Cosmos 1745 Rocket 4.0 04:18:21 10° N 04:24:40 78° W 04:30:53 10° S
CZ-2C R/B 2.3 04:20:22 10° N 04:24:55 70° WNW 04:29:30 10° SSW
Cosmos 1125 Rocket 3.5 04:21:15 10° SSW 04:26:28 85° WNW 04:31:46 10° NNE
Meteor 1-31 Rocket 4.0 04:25:53 10° NNE 04:29:37 45° E 04:33:18 10° S
Cosmos 1603 4.2 04:25:30 10° NW 04:30:43 37° WSW 04:35:53 10° S
